Location: Prairie Dale
(45.6972°N, 104.5033°W)
Time: 20:13:42
(UTC+00:00)

RS-44 - Visible Passes

Search period start: 26 June 2022 00:00
Search period end: 06 July 2022 00:00
Orbit: 1175 x 1509 km, 82.5° (Epoch: 26 June)

Date Brightness Start Highest point End Pass type
(mag) Time Alt. Az. Time Alt. Az. Time Alt. Az.
26 Jun ? 04:28:09 10° SSW 04:36:04 66° WNW 04:44:39 10° N visible
26 Jun ? 06:27:00 10° W 06:31:35 16° NW 06:36:19 10° NNW visible
27 Jun ? 04:52:31 10° SW 05:00:09 45° WNW 05:08:21 10° N visible
28 Jun ? 03:22:21 10° S 03:30:16 66° E 03:38:47 10° NNE visible
28 Jun ? 05:17:25 10° SW 05:24:26 31° WNW 05:31:53 10° N visible
29 Jun ? 03:45:54 10° S 03:54:00 86° W 04:02:44 10° N visible
29 Jun ? 05:42:58 10° WSW 05:48:55 21° WNW 05:55:10 10° N visible
30 Jun ? 04:09:56 10° SSW 04:17:56 60° WNW 04:26:33 10° N visible
30 Jun ? 06:09:30 10° W 06:13:39 14° NW 06:17:54 10° NNW visible
01 Jul ? 04:34:26 10° SW 04:42:03 41° WNW 04:50:12 10° N visible
02 Jul ? 04:59:29 10° WSW 05:06:24 28° WNW 05:13:42 10° N visible
03 Jul ? 03:27:36 10° SSW 03:35:49 79° W 03:44:40 10° N visible
03 Jul ? 05:25:15 10° W 05:30:57 19° NW 05:36:53 10° NNW visible
04 Jul ? 03:51:45 10° SSW 03:59:48 54° WNW 04:08:26 10° N visible
04 Jul ? 05:52:10 10° WNW 05:55:45 13° NW 05:59:24 10° NNW visible
05 Jul ? 04:16:24 10° SW 04:24:00 37° WNW 04:32:03 10° N visible
